QPF
0.00 0.00 0.00 0.00 0.00 0.00 0.01 0.02 0.01 0.05 0.01 0.02 0.03 0.02 0.00 0.00 0.00 0.01 0.02 0.02 0.00 0.02 0.01 0.00 0.00 0.00 0.00 0.00 0.00 0.00 0.00 0.00 0.00 0.01 0.00 0.00 0.00 0.00 0.00 0.00 0.00 0.00 0.00 0.00
0.00 0.00 0.00 0.00 0.00 0.00 0.02 0.03 0.00 0.01 0.03 0.01 0.01 0.01 0.00 0.00 0.00 0.02 0.06 0.02 0.00 0.00 0.02 0.04 0.03 0.00 0.02 0.01 0.00 0.00 0.00 0.00 0.00 0.01 0.00 0.00 0.00 0.00 0.00 0.00 0.00 0.00 0.00 0.00
0.00 0.00 0.00 0.00 0.00 0.00 0.02 0.03 0.01 0.02 0.04 0.01 0.00 0.01 0.01 0.01 0.00 0.02 0.05 0.01 0.00 0.00 0.00 0.03 0.02 0.01 0.00 0.01 0.00 0.00 0.00 0.00 0.00 0.00 0.00 0.00 0.00 0.00 0.00 0.00 0.00 0.00 0.00 0.00
0.00 0.00 0.00 0.00 0.00 0.00 0.03 0.03 0.01 0.01 0.02 0.03 0.03 0.03 0.03 0.01 0.01 0.04 0.05 0.04 0.00 0.00 0.00 0.02 0.05 0.01 0.00 0.00 0.00 0.00 0.00 0.00 0.00 0.00 0.00 0.00 0.00 0.00 0.00 0.00 0.00 0.00 0.00 0.00
0.00 0.00 0.00 0.00 0.00 0.01 0.04 0.03 0.02 0.03 0.01 0.01 0.00 0.00 0.00 0.02 0.03 0.06 0.08 0.08 0.05 0.01 0.04 0.02 0.00 0.01 0.00 0.00 0.00 0.00 0.00 0.00 0.00 0.00 0.00 0.00 0.00 0.00 0.00 0.00 0.00 0.00 0.00 0.00
0.00 0.00 0.00 0.00 0.00 0.03 0.04 0.03 0.01 0.04 0.01 0.01 0.02 0.02 0.02 0.02 0.07 0.04 0.06 0.10 0.11 0.00 0.02 0.04 0.01 0.00 0.00 0.00 0.00 0.00 0.00 0.00 0.00 0.00 0.00 0.00 0.00 0.00 0.00 0.00 0.00 0.00 0.00 0.00
0.00 0.00 0.00 0.00 0.00 0.03 0.04 0.05 0.05 0.06 0.02 0.01 0.00 0.00 0.00 0.00 0.03 0.06 0.04 0.12 0.09 0.01 0.00 0.00 0.00 0.00 0.00 0.00 0.00 0.00 0.00 0.00 0.00 0.00 0.00 0.00 0.00 0.00 0.00 0.00 0.00 0.00 0.00 0.00
0.00 0.00 0.00 0.00 0.00 0.01 0.04 0.06 0.06 0.05 0.04 0.02 0.02 0.01 0.00 0.00 0.00 0.02 0.05 0.09 0.07 0.00 0.00 0.01 0.00 0.00 0.00 0.00 0.00 0.00 0.00 0.00 0.00 0.00 0.00 0.00 0.00 0.00 0.00 0.00 0.00 0.00 0.00 0.00
0.00 0.00 0.00 0.00 0.00 0.00 0.03 0.04 0.07 0.07 0.08 0.01 0.01 0.03 0.01 0.02 0.01 0.03 0.08 0.06 0.02 0.00 0.00 0.01 0.00 0.00 0.00 0.00 0.00 0.00 0.00 0.00 0.00 0.00 0.00 0.00 0.00 0.00 0.00 0.00 0.00 0.00 0.00 0.00
0.00 0.00 0.00 0.00 0.00 0.00 0.04 0.02 0.06 0.09 0.13 0.01 0.01 0.02 0.03 0.03 0.02 0.03 0.15 0.19 0.05 0.00 0.02 0.01 0.00 0.00 0.00 0.00 0.00 0.00 0.00 0.00 0.00 0.00 0.00 0.00 0.00 0.00 0.00 0.00 0.00 0.00 0.00 0.00
0.00 0.00 0.00 0.00 0.00 0.01 0.05 0.03 0.04 0.08 0.09 0.01 0.00 0.01 0.01 0.03 0.03 0.04 0.14 0.17 0.09 0.02 0.03 0.02 0.01 0.01 0.00 0.00 0.00 0.00 0.00 0.00 0.00 0.00 0.00 0.00 0.00 0.00 0.00 0.00 0.00 0.00 0.00 0.00
0.00 0.00 0.00 0.01 0.01 0.01 0.05 0.04 0.02 0.07 0.08 0.03 0.01 0.01 0.01 0.02 0.02 0.02 0.06 0.12 0.10 0.07 0.03 0.06 0.06 0.02 0.00 0.00 0.00 0.00 0.00 0.00 0.00 0.00 0.00 0.00 0.00 0.00 0.00 0.00 0.00 0.00 0.00 0.00
0.00 0.00 0.01 0.01 0.01 0.01 0.05 0.04 0.03 0.09 0.06 0.04 0.00 0.00 0.00 0.00 0.00 0.00 0.02 0.11 0.16 0.05 0.03 0.04 0.05 0.03 0.00 0.00 0.00 0.00 0.00 0.00 0.00 0.00 0.00 0.00 0.00 0.00 0.00 0.00 0.00 0.00 0.00 0.00
0.00 0.01 0.01 0.02 0.03 0.03 0.04 0.06 0.05 0.09 0.08 0.04 0.00 0.00 0.00 0.00 0.00 0.00 0.00 0.01 0.05 0.06 0.01 0.01 0.01 0.04 0.00 0.00 0.00 0.00 0.00 0.00 0.00 0.00 0.00 0.00 0.00 0.00 0.00 0.00 0.00 0.00 0.00 0.00
0.00 0.01 0.03 0.05 0.07 0.08 0.07 0.07 0.05 0.07 0.05 0.03 0.04 0.01 0.00 0.00 0.00 0.00 0.00 0.00 0.02 0.06 0.07 0.01 0.00 0.00 0.00 0.00 0.00 0.00 0.00 0.00 0.00 0.00 0.00 0.00 0.00 0.00 0.00 0.00 0.00 0.00 0.00 0.00
0.00 0.02 0.07 0.13 0.15 0.10 0.13 0.16 0.08 0.07 0.05 0.06 0.02 0.00 0.01 0.00 0.00 0.00 0.00 0.00 0.04 0.09 0.06 0.01 0.00 0.00 0.00 0.00 0.00 0.00 0.00 0.00 0.00 0.00 0.00 0.00 0.00 0.00 0.00 0.00 0.00 0.00 0.00 0.00
0.01 0.03 0.07 0.10 0.16 0.12 0.11 0.13 0.03 0.01 0.07 0.16 0.05 0.00 0.00 0.00 0.00 0.00 0.00 0.01 0.03 0.07 0.06 0.01 0.00 0.00 0.00 0.00 0.00 0.00 0.00 0.00 0.00 0.00 0.00 0.00 0.00 0.00 0.00 0.00 0.00 0.00 0.00 0.00
0.04 0.05 0.07 0.07 0.11 0.15 0.07 0.02 0.00 0.01 0.06 0.09 0.06 0.01 0.01 0.00 0.02 0.01 0.01 0.01 0.03 0.05 0.03 0.01 0.00 0.01 0.00 0.00 0.00 0.00 0.00 0.00 0.00 0.00 0.00 0.00 0.00 0.00 0.00 0.00 0.00 0.00 0.00 0.00
0.10 0.10 0.11 0.20 0.36 0.33 0.11 0.01 0.01 0.02 0.03 0.06 0.02 0.01 0.01 0.02 0.03 0.03 0.02 0.01 0.01 0.01 0.01 0.00 0.01 0.01 0.01 0.00 0.00 0.00 0.00 0.00 0.00 0.00 0.00 0.00 0.00 0.00 0.00 0.00 0.00 0.00 0.00 0.00
0.20 0.30 0.21 0.19 0.12 0.03 0.03 0.08 0.15 0.16 0.08 0.06 0.01 0.00 0.02 0.06 0.04 0.05 0.06 0.05 0.01 0.01 0.00 0.00 0.00 0.00 0.00 0.00 0.00 0.00 0.00 0.00 0.00 0.00 0.00 0.00 0.00 0.00 0.00 0.00 0.00 0.00 0.00 0.00
0.40 0.31 0.06 0.02 0.01 0.05 0.14 0.15 0.25 0.18 0.08 0.01 0.00 0.00 0.00 0.03 0.04 0.06 0.06 0.04 0.02 0.01 0.00 0.00 0.00 0.00 0.00 0.00 0.00 0.00 0.00 0.00 0.00 0.00 0.00 0.00 0.00 0.00 0.00 0.00 0.00 0.00 0.00 0.00
0.21 0.09 0.06 0.13 0.12 0.14 0.12 0.10 0.06 0.04 0.01 0.00 0.00 0.00 0.00 0.02 0.03 0.07 0.07 0.05 0.02 0.00 0.00 0.00 0.00 0.00 0.00 0.00 0.00 0.00 0.00 0.00 0.00 0.00 0.00 0.00 0.00 0.00 0.00 0.00 0.00 0.00 0.00 0.00
0.09 0.16 0.26 0.19 0.07 0.05 0.04 0.03 0.02 0.01 0.00 0.00 0.00 0.00 0.01 0.01 0.05 0.08 0.03 0.02 0.01 0.00 0.02 0.00 0.00 0.00 0.00 0.00 0.00 0.00 0.00 0.00 0.00 0.00 0.00 0.00 0.00 0.00 0.00 0.00 0.00 0.00 0.00 0.00
0.10 0.24 0.15 0.04 0.01 0.00 0.00 0.00 0.00 0.00 0.00 0.00 0.00 0.00 0.00 0.02 0.01 0.06 0.05 0.02 0.02 0.00 0.00 0.00 0.00 0.00 0.00 0.00 0.00 0.00 0.00 0.00 0.00 0.00 0.00 0.00 0.00 0.00 0.00 0.00 0.00 0.00 0.00 0.00
0.16 0.07 0.04 0.00 0.01 0.01 0.00 0.00 0.00 0.00 0.00 0.00 0.00 0.00 0.01 0.02 0.03 0.07 0.04 0.02 0.01 0.00 0.00 0.00 0.00 0.00 0.00 0.00 0.00 0.00 0.00 0.00 0.00 0.00 0.00 0.00 0.00 0.00 0.00 0.00 0.00 0.00 0.00 0.00
0.19 0.05 0.01 0.01 0.01 0.03 0.02 0.00 0.00 0.00 0.00 0.00 0.01 0.01 0.02 0.03 0.01 0.03 0.05 0.02 0.00 0.00 0.00 0.00 0.00 0.00 0.00 0.00 0.00 0.00 0.00 0.00 0.00 0.00 0.00 0.00 0.00 0.00 0.00 0.00 0.00 0.00 0.00 0.00
0.10 0.04 0.00 0.00 0.02 0.01 0.00 0.00 0.00 0.00 0.00 0.01 0.02 0.04 0.01 0.01 0.00 0.00 0.01 0.01 0.01 0.00 0.01 0.00 0.00 0.00 0.00 0.00 0.00 0.00 0.00 0.00 0.00 0.00 0.00 0.00 0.00 0.00 0.00 0.00 0.00 0.00 0.00 0.00
MSLP
1028.37 1028.33 1028.19 1027.99 1027.64 1027.28 1026.43 1025.53 1023.99 1023.08 1023.01 1023.06 1022.59 1021.82 1020.62 1019.73 1018.23 1017.03 1016.16 1015.83 1014.80 1013.25 1011.50 1009.80 1007.92 1006.88 1006.57 1006.90 1008.10 1010.03 1011.43 1012.98 1013.75 1014.50 1015.00 1015.18 1015.87 1017.59 1019.28 1020.57 1021.67 1021.31 1020.34 1018.02
1028.30 1028.20 1028.23 1028.17 1027.94 1027.76 1026.99 1025.71 1023.92 1022.43 1022.72 1022.45 1021.88 1020.80 1019.82 1019.14 1018.66 1017.75 1016.78 1015.87 1015.12 1013.64 1012.89 1010.61 1010.24 1007.69 1007.11 1007.97 1008.72 1009.41 1010.74 1012.31 1013.36 1014.60 1015.31 1015.76 1015.59 1016.43 1018.57 1020.51 1021.20 1021.27 1020.55 1018.51
1028.21 1028.23 1028.26 1028.24 1028.08 1028.00 1027.64 1026.32 1024.37 1022.26 1022.57 1022.04 1021.59 1020.67 1019.67 1018.97 1018.77 1018.06 1016.89 1016.79 1015.94 1014.05 1012.61 1011.23 1010.19 1009.62 1008.42 1009.06 1009.51 1009.77 1010.25 1011.09 1011.53 1011.91 1012.31 1013.17 1014.42 1015.05 1016.90 1018.77 1020.12 1020.09 1019.70 1018.70
1028.13 1028.16 1028.19 1028.23 1028.22 1028.16 1027.97 1026.81 1025.23 1023.32 1022.67 1021.94 1021.84 1021.07 1020.62 1019.59 1019.05 1017.94 1017.43 1016.90 1015.75 1014.95 1013.74 1011.42 1010.65 1009.23 1009.28 1009.34 1009.82 1009.96 1010.31 1010.87 1011.19 1011.15 1011.23 1012.30 1012.89 1013.84 1015.00 1016.52 1017.38 1017.96 1017.98 1017.66
1027.93 1028.01 1028.11 1028.13 1028.19 1028.19 1028.02 1027.06 1026.07 1024.28 1023.55 1022.44 1021.47 1020.46 1020.00 1019.63 1020.06 1020.22 1018.02 1017.44 1016.76 1016.21 1014.22 1013.09 1009.29 1008.98 1008.84 1008.63 1009.51 1009.81 1010.32 1010.48 1010.90 1011.05 1011.22 1011.74 1011.73 1012.13 1013.02 1014.03 1015.24 1015.82 1016.21 1016.00
1027.66 1027.67 1027.79 1027.99 1028.12 1028.31 1027.45 1026.74 1026.40 1026.29 1024.46 1023.11 1022.07 1021.00 1020.33 1020.20 1020.46 1019.65 1018.98 1018.54 1017.86 1016.36 1014.18 1012.59 1008.93 1007.12 1007.93 1008.54 1009.16 1009.88 1010.22 1010.66 1010.83 1011.01 1011.29 1011.38 1011.12 1010.63 1010.71 1011.20 1012.03 1013.24 1013.99 1013.80
1027.39 1027.43 1027.53 1027.69 1027.89 1028.01 1027.61 1027.13 1027.10 1026.17 1024.42 1023.35 1021.91 1020.67 1020.30 1019.96 1019.68 1020.10 1019.74 1019.57 1018.72 1015.99 1014.70 1011.73 1007.64 1007.46 1008.20 1008.61 1009.31 1009.64 1010.13 1010.85 1011.21 1011.31 1011.68 1011.36 1009.50 1008.96 1009.09 1009.45 1009.72 1010.48 1011.30 1011.65
1026.95 1027.04 1027.24 1027.39 1027.54 1027.65 1027.57 1027.32 1027.43 1026.63 1025.07 1023.92 1022.59 1021.42 1020.29 1020.01 1019.51 1019.64 1019.82 1019.12 1018.76 1017.70 1016.11 1013.58 1009.92 1008.99 1008.86 1009.19 1009.47 1009.87 1010.46 1011.03 1011.84 1012.11 1011.85 1010.13 1008.77 1008.68 1008.42 1008.25 1008.59 1008.65 1009.47 1010.21
1026.42 1026.67 1026.86 1027.01 1027.15 1027.24 1027.28 1026.88 1027.05 1026.92 1025.73 1023.51 1022.59 1022.28 1021.30 1020.36 1020.49 1020.42 1020.06 1019.35 1018.43 1017.42 1015.98 1014.23 1011.11 1009.58 1009.27 1009.62 1009.86 1009.95 1010.76 1012.06 1012.65 1012.57 1011.90 1010.19 1008.94 1008.67 1008.46 1008.09 1008.39 1007.86 1008.27 1009.07
1025.93 1026.15 1026.34 1026.46 1026.57 1026.73 1026.94 1026.26 1026.20 1026.55 1025.26 1023.58 1023.34 1022.07 1021.55 1021.73 1021.74 1021.28 1021.15 1021.10 1019.18 1017.11 1016.25 1014.19 1011.77 1009.67 1008.67 1009.21 1009.48 1010.06 1010.69 1011.84 1012.75 1012.81 1012.08 1010.40 1008.91 1009.02 1008.87 1008.91 1009.38 1008.63 1008.43 1008.63
1025.30 1025.53 1025.73 1025.80 1025.92 1026.09 1026.44 1025.51 1025.60 1025.94 1024.90 1023.61 1023.07 1021.97 1021.32 1021.23 1022.12 1022.21 1022.50 1022.17 1020.11 1018.30 1017.02 1014.60 1012.25 1010.36 1008.98 1008.52 1008.69 1009.47 1010.25 1011.40 1012.24 1012.59 1011.82 1010.68 1009.01 1009.34 1009.18 1009.15 1009.12 1008.79 1008.62 1008.62
1024.54 1024.74 1024.92 1025.03 1025.16 1025.34 1025.71 1025.16 1024.80 1025.04 1025.25 1023.59 1022.63 1022.02 1021.15 1020.70 1021.03 1022.11 1022.60 1022.63 1022.18 1019.67 1017.50 1015.44 1012.91 1011.09 1009.51 1008.71 1008.56 1009.13 1009.66 1009.81 1010.45 1010.78 1010.13 1009.60 1009.28 1009.12 1009.29 1009.24 1009.07 1008.84 1008.59 1008.69
1023.79 1023.85 1023.93 1023.98 1024.13 1024.37 1024.72 1024.57 1024.28 1024.51 1024.50 1023.32 1022.23 1020.56 1019.79 1019.58 1019.93 1020.97 1021.53 1021.85 1022.05 1020.72 1020.48 1017.17 1014.35 1012.19 1009.66 1008.60 1008.25 1008.69 1008.91 1009.13 1009.53 1009.70 1009.13 1009.11 1009.19 1009.15 1009.39 1009.47 1009.37 1009.38 1009.30 1009.29
1022.88 1022.89 1022.90 1022.90 1023.00 1023.26 1023.62 1023.63 1023.65 1023.98 1023.84 1022.34 1019.62 1019.14 1018.59 1018.25 1018.67 1019.79 1020.48 1020.76 1021.61 1021.53 1020.07 1017.47 1014.43 1012.25 1009.57 1008.31 1007.68 1008.10 1008.46 1008.86 1008.95 1008.98 1008.51 1008.54 1008.62 1008.87 1009.13 1009.46 1009.65 1009.70 1009.85 1009.89
1021.83 1021.78 1021.71 1021.74 1021.88 1021.94 1022.28 1022.46 1022.50 1022.71 1023.05 1020.23 1019.38 1018.98 1017.53 1016.82 1017.77 1018.81 1019.81 1020.60 1021.07 1021.01 1019.44 1016.62 1014.00 1011.50 1009.83 1008.54 1007.99 1007.68 1007.80 1008.09 1008.36 1007.94 1007.58 1007.79 1007.99 1008.17 1008.71 1009.18 1009.65 1009.87 1010.14 1010.46
1020.70 1020.55 1020.47 1020.44 1020.41 1020.77 1021.42 1021.27 1021.25 1021.47 1022.00 1022.00 1020.07 1017.71 1016.53 1016.23 1017.23 1018.48 1019.40 1019.98 1020.62 1020.77 1019.04 1016.06 1013.55 1011.98 1011.02 1008.92 1007.77 1007.18 1007.26 1007.45 1007.25 1007.40 1007.54 1007.79 1008.15 1008.18 1008.48 1008.92 1009.36 1009.79 1010.26 1010.73
1019.55 1019.35 1019.19 1018.91 1018.52 1018.41 1019.04 1019.33 1018.96 1019.78 1021.58 1021.55 1020.04 1017.16 1015.22 1015.55 1016.48 1017.40 1018.64 1019.45 1019.97 1020.08 1018.20 1015.63 1013.25 1011.55 1011.05 1009.56 1008.20 1006.76 1006.85 1007.01 1007.15 1007.47 1007.84 1008.00 1008.05 1007.92 1008.36 1008.51 1008.85 1009.64 1010.25 1010.78
1018.52 1018.31 1018.00 1017.52 1017.30 1018.21 1018.92 1018.25 1018.82 1019.39 1020.67 1021.02 1019.37 1016.55 1015.13 1014.83 1015.64 1016.98 1018.00 1018.62 1019.07 1018.49 1016.87 1014.74 1013.02 1011.74 1010.98 1009.32 1008.15 1007.25 1006.85 1006.88 1007.10 1007.35 1007.65 1007.58 1007.89 1008.01 1008.28 1008.52 1008.78 1009.40 1009.94 1010.64
1017.65 1017.43 1016.87 1016.88 1017.27 1017.94 1017.91 1018.26 1018.43 1018.69 1019.12 1018.81 1017.51 1015.86 1014.72 1014.47 1014.93 1015.64 1016.69 1016.82 1016.98 1016.31 1015.28 1013.88 1012.22 1010.64 1009.62 1008.65 1007.80 1007.07 1006.77 1006.78 1006.87 1007.15 1007.40 1007.64 1007.90 1008.13 1008.19 1008.46 1008.84 1009.32 1009.80 1010.53
1016.92 1016.73 1016.66 1017.42 1017.59 1017.46 1017.92 1018.98 1019.11 1018.85 1018.25 1017.25 1015.60 1014.88 1013.99 1014.15 1014.09 1015.02 1015.64 1015.34 1014.48 1014.01 1013.24 1012.22 1010.92 1009.22 1008.32 1007.75 1007.02 1006.82 1006.53 1006.45 1006.63 1006.71 1007.00 1007.18 1007.36 1007.66 1008.10 1008.17 1008.64 1009.00 1009.71 1010.44
1016.01 1016.22 1016.55 1016.66 1017.01 1017.39 1018.22 1018.30 1018.01 1017.37 1016.55 1015.14 1014.36 1013.98 1013.32 1013.67 1014.11 1014.49 1014.24 1013.76 1012.57 1011.63 1010.34 1010.12 1008.27 1007.08 1007.11 1006.81 1006.50 1006.35 1006.28 1006.24 1006.24 1006.47 1006.72 1006.86 1007.14 1007.54 1007.84 1008.11 1008.33 1008.83 1009.32 1010.23
1015.42 1015.44 1015.93 1016.54 1016.63 1016.94 1016.93 1016.29 1016.02 1015.16 1013.52 1012.48 1012.56 1012.80 1013.10 1014.45 1015.01 1015.13 1014.23 1013.20 1011.79 1009.61 1008.81 1008.23 1006.20 1005.24 1004.96 1005.08 1005.21 1005.45 1005.68 1005.86 1006.11 1006.29 1006.41 1006.65 1006.85 1007.19 1007.38 1007.74 1008.22 1008.70 1009.28 1010.19
1014.96 1014.88 1015.31 1015.54 1015.42 1014.82 1013.75 1012.86 1012.35 1011.75 1010.87 1010.60 1011.17 1011.74 1012.37 1014.55 1015.20 1015.35 1014.32 1012.54 1010.94 1008.72 1007.64 1006.22 1005.00 1004.40 1003.57 1003.48 1003.88 1004.46 1005.02 1005.36 1005.58 1005.89 1006.26 1006.43 1006.58 1006.91 1007.25 1007.70 1008.14 1008.77 1009.55 1010.24
1013.68 1014.02 1014.06 1013.63 1012.38 1011.10 1009.92 1009.39 1009.53 1009.76 1009.85 1009.62 1010.10 1010.87 1011.79 1013.53 1014.82 1014.83 1013.72 1011.57 1009.39 1007.80 1006.15 1005.08 1004.24 1003.71 1003.40 1003.26 1003.28 1003.54 1003.71 1004.14 1004.61 1004.98 1005.58 1005.97 1006.32 1006.68 1006.97 1007.49 1008.11 1008.77 1009.68 1010.60
1012.96 1012.62 1011.12 1010.23 1009.09 1008.22 1007.81 1007.60 1007.81 1008.17 1008.78 1008.89 1009.43 1010.18 1011.09 1012.43 1013.57 1013.63 1012.65 1010.42 1007.59 1005.77 1004.70 1004.17 1003.57 1003.29 1003.19 1003.10 1003.04 1003.15 1003.38 1003.65 1003.99 1004.34 1004.81 1005.32 1005.94 1006.31 1006.82 1007.15 1007.72 1008.57 1009.69 1010.86
1011.70 1010.66 1008.93 1007.56 1007.71 1007.13 1006.67 1006.24 1006.30 1007.09 1007.72 1008.21 1008.79 1009.75 1010.20 1010.97 1011.27 1011.46 1010.55 1009.05 1006.27 1004.99 1003.96 1003.46 1003.30 1003.29 1002.94 1002.89 1002.95 1003.03 1003.25 1003.35 1003.49 1003.65 1003.92 1004.30 1004.95 1005.63 1006.05 1006.82 1007.34 1008.31 1009.27 1010.55
1009.46 1008.76 1007.90 1006.94 1006.40 1006.28 1006.20 1006.05 1005.48 1006.19 1006.92 1007.21 1007.93 1008.28 1008.48 1008.43 1008.40 1008.23 1007.76 1006.63 1005.13 1004.35 1004.17 1003.80 1003.93 1003.83 1003.72 1003.63 1003.42 1003.12 1003.05 1003.06 1003.06 1003.23 1003.45 1003.70 1004.13 1004.90 1005.52 1005.93 1006.66 1007.60 1008.62 1010.02
Thickness
5442 5441 5442 5442 5443 5444 5448 5456 5459 5466 5464 5461 5458 5459 5475 5482 5495 5509 5516 5520 5531 5546 5562 5572 5610 5612 5627 5644 5630 5615 5616 5599 5588 5594 5601 5607 5604 5579 5562 5563 5560 5557 5566 5584
5432 5431 5430 5430 5430 5429 5434 5441 5454 5463 5457 5448 5456 5471 5479 5483 5485 5495 5508 5517 5528 5551 5543 5570 5569 5609 5627 5617 5620 5619 5615 5592 5579 5577 5586 5591 5596 5600 5576 5556 5558 5556 5571 5586
5422 5420 5419 5418 5419 5417 5419 5428 5435 5458 5449 5453 5454 5463 5472 5477 5482 5489 5509 5508 5517 5543 5559 5568 5569 5575 5608 5599 5612 5606 5616 5605 5602 5602 5603 5604 5589 5600 5587 5575 5559 5567 5568 5577
5412 5410 5408 5407 5406 5404 5406 5414 5420 5442 5434 5445 5440 5453 5455 5467 5474 5491 5501 5506 5525 5533 5538 5571 5561 5592 5590 5599 5591 5606 5611 5587 5609 5618 5621 5612 5605 5600 5601 5580 5579 5578 5573 5576
5403 5401 5398 5397 5396 5395 5395 5400 5407 5423 5425 5435 5444 5454 5461 5465 5452 5452 5490 5499 5510 5518 5531 5542 5584 5581 5590 5598 5600 5601 5605 5599 5605 5603 5614 5610 5609 5615 5613 5604 5591 5588 5590 5585
5393 5392 5390 5386 5384 5382 5388 5392 5393 5388 5403 5419 5428 5440 5448 5450 5448 5461 5479 5487 5488 5508 5534 5551 5573 5611 5604 5599 5595 5591 5595 5597 5597 5592 5604 5603 5587 5601 5624 5624 5619 5604 5589 5600
5383 5383 5381 5378 5375 5373 5375 5376 5374 5380 5399 5410 5427 5441 5446 5451 5459 5454 5470 5474 5477 5520 5533 5558 5599 5603 5597 5598 5594 5601 5594 5595 5598 5590 5591 5567 5614 5637 5635 5628 5634 5630 5621 5621
5376 5374 5371 5368 5365 5364 5363 5362 5359 5363 5381 5396 5409 5424 5439 5447 5458 5467 5467 5480 5484 5500 5513 5533 5566 5573 5577 5582 5590 5594 5597 5591 5578 5574 5577 5607 5626 5628 5630 5629 5626 5642 5632 5628
5368 5364 5361 5358 5356 5353 5352 5354 5352 5351 5365 5391 5403 5400 5418 5436 5439 5450 5460 5476 5486 5500 5517 5523 5549 5555 5569 5565 5575 5594 5592 5582 5573 5574 5577 5591 5618 5629 5637 5640 5612 5646 5644 5634
5359 5355 5352 5350 5347 5345 5343 5350 5349 5344 5360 5381 5383 5398 5407 5412 5421 5439 5441 5446 5477 5504 5508 5526 5549 5565 5585 5564 5568 5573 5578 5575 5560 5565 5567 5594 5626 5625 5631 5606 5612 5633 5637 5636
5351 5347 5343 5341 5339 5338 5337 5348 5344 5343 5356 5370 5379 5394 5404 5415 5410 5422 5424 5437 5467 5491 5497 5525 5545 5562 5577 5582 5591 5582 5579 5570 5566 5564 5572 5573 5626 5618 5612 5620 5627 5631 5633 5636
5344 5340 5337 5336 5336 5335 5333 5342 5343 5343 5342 5368 5374 5386 5401 5414 5421 5418 5416 5428 5432 5471 5504 5523 5544 5554 5572 5581 5573 5594 5579 5592 5584 5587 5589 5613 5619 5621 5624 5627 5626 5630 5634 5636
5337 5336 5336 5336 5335 5333 5332 5338 5340 5340 5344 5361 5374 5396 5407 5417 5423 5424 5427 5431 5436 5452 5458 5497 5526 5539 5572 5570 5580 5586 5593 5603 5594 5594 5609 5612 5615 5622 5622 5624 5624 5626 5629 5631
5335 5335 5335 5336 5335 5334 5333 5338 5339 5340 5347 5362 5397 5401 5412 5423 5428 5430 5434 5441 5439 5443 5460 5494 5524 5532 5569 5579 5590 5587 5592 5595 5594 5595 5611 5616 5619 5620 5622 5621 5622 5623 5624 5626
5335 5335 5337 5337 5337 5339 5339 5341 5343 5347 5351 5389 5389 5396 5419 5431 5432 5434 5436 5438 5439 5442 5462 5500 5520 5548 5563 5578 5586 5587 5597 5591 5586 5592 5615 5619 5621 5626 5625 5620 5617 5619 5618 5616
5336 5339 5340 5343 5346 5345 5342 5344 5349 5353 5355 5358 5376 5411 5424 5434 5433 5432 5433 5438 5439 5439 5461 5502 5524 5542 5548 5563 5575 5596 5599 5602 5610 5607 5619 5620 5620 5625 5627 5621 5620 5620 5617 5614
5339 5343 5347 5352 5357 5360 5357 5360 5372 5367 5356 5358 5380 5413 5436 5438 5440 5443 5440 5442 5443 5444 5468 5498 5523 5542 5542 5555 5562 5595 5599 5604 5607 5613 5613 5611 5618 5621 5624 5626 5626 5618 5617 5613
5342 5347 5352 5359 5363 5357 5354 5365 5366 5365 5359 5360 5377 5412 5432 5443 5442 5437 5443 5445 5445 5456 5477 5503 5519 5531 5535 5547 5572 5585 5595 5599 5603 5610 5613 5617 5621 5624 5623 5625 5624 5619 5616 5611
5345 5350 5357 5359 5357 5353 5362 5363 5366 5368 5371 5374 5396 5414 5428 5446 5450 5452 5451 5458 5460 5476 5481 5501 5522 5534 5529 5555 5570 5580 5590 5596 5601 5608 5611 5614 5615 5616 5621 5622 5621 5616 5614 5609
5348 5352 5354 5349 5353 5359 5359 5356 5355 5359 5367 5387 5409 5428 5439 5445 5457 5454 5458 5463 5483 5486 5501 5515 5519 5536 5558 5571 5580 5585 5593 5599 5603 5602 5606 5612 5615 5617 5618 5622 5622 5621 5616 5610
5351 5348 5352 5357 5355 5355 5348 5350 5354 5362 5375 5403 5421 5433 5444 5449 5453 5462 5470 5475 5497 5505 5528 5524 5540 5551 5563 5575 5582 5589 5595 5600 5606 5609 5612 5616 5617 5616 5617 5619 5623 5622 5620 5613
5353 5357 5356 5353 5353 5347 5356 5363 5367 5378 5404 5429 5432 5440 5446 5435 5437 5440 5459 5470 5496 5516 5534 5533 5548 5573 5587 5586 5588 5592 5596 5600 5602 5608 5611 5614 5617 5619 5622 5623 5622 5622 5622 5614
5354 5358 5352 5352 5358 5369 5376 5381 5401 5410 5433 5445 5444 5444 5448 5432 5430 5423 5445 5473 5487 5524 5525 5538 5561 5581 5596 5601 5599 5597 5599 5601 5603 5606 5609 5613 5616 5620 5622 5621 5623 5622 5619 5615
5360 5358 5361 5367 5376 5392 5417 5430 5434 5438 5442 5450 5452 5449 5446 5436 5424 5428 5443 5479 5504 5513 5526 5545 5569 5585 5592 5599 5603 5604 5605 5607 5607 5609 5610 5613 5615 5617 5620 5619 5620 5615 5615 5609
5359 5363 5383 5391 5415 5429 5437 5444 5445 5445 5448 5452 5453 5451 5451 5442 5429 5426 5443 5476 5504 5523 5539 5556 5572 5582 5590 5595 5599 5602 5602 5604 5606 5610 5612 5613 5612 5616 5613 5618 5619 5619 5610 5599
5358 5372 5398 5423 5421 5429 5439 5448 5451 5452 5451 5451 5451 5442 5445 5439 5449 5446 5454 5475 5510 5527 5546 5560 5571 5576 5585 5591 5595 5597 5599 5604 5609 5612 5615 5618 5616 5615 5620 5617 5620 5613 5608 5591
5368 5381 5402 5420 5429 5432 5439 5444 5453 5453 5448 5446 5445 5440 5450 5468 5472 5476 5486 5497 5519 5529 5537 5547 5554 5561 5567 5577 5583 5591 5595 5600 5606 5611 5615 5618 5621 5618 5619 5621 5622 5616 5611 5596